Regional Weather Roundup
Issued by NWS

Home | Current Version | Previous Version | Text Only | Print | Product List | Glossary Off
Versions: 1 2 3 4 5 6 7 8 9 10 11 12 13 14 15 16 17 18 19 20 21 22 23 24 25 26 27 28 29 30 31 32 33 34 35 36 37 38 39 40 41 42 43 44 45 46 47 48 49 50

000
ASUS45 KCYS 042110
RWRWY

WYOMING REGIONAL WEATHER ROUNDUP
NATIONAL WEATHER SERVICE CHEYENNE WY
300 PM MDT SAT JUL 04 2015

NOTE:  "FAIR" INDICATES FEW OR NO CLOUDS BELOW 12,000 FEET
WITH NO SIGNIFICANT WEATHER AND/OR OBSTRUCTIONS TO VISIBILITY.

WYZ001-042200-
YELLOWSTONE NATIONAL PARK

CITY           SKY/WX    TMP DP  RH WIND       PRES   REMARKS
LK YELLOWSTONE   N/A     74  44  34 VRB3      30.18F
W YELLOWSTONE  NOT AVBL

$$
WYZ002>013-054>058-071-098>099-042200-
NORTHERN WYOMING

CITY           SKY/WX    TMP DP  RH WIND       PRES   REMARKS
JACKSON        FAIR      86  43  22 S10       30.05F
CODY           FAIR      91  43  18 NE8       29.91F
GREYBULL       FAIR      97  33  10 VRB6      29.81F HX  91
WORLAND        FAIR      94  41  16 NW6       29.85F HX  90
SHERIDAN       FAIR      94  46  19 SW7       29.85F HX  90
BUFFALO        FAIR      89  49  25 S8        29.94F
GILLETTE       FAIR      91  45  20 E7        29.89F
HULETT         FAIR      88  50  27 N3        29.91S
NEWCASTLE      FAIR      88  46  23 MISG      29.90F

$$
WYZ014>020-022>026-101>103-042200-
CENTRAL WYOMING

CITY           SKY/WX    TMP DP  RH WIND       PRES   REMARKS
BIG PINEY      FAIR      89  30  12 NW14G23   30.10F
PINEDALE       FAIR      86  32  14 NW12G22   30.11F
DUBOIS         FAIR      86  28  12 NW16      30.08F
LANDER         FAIR      94  47  20 E10       29.94F HX  90
RIVERTON       FAIR      92  37  14 E7        29.95F
CASPER         FAIR      94  43  17 N8        29.94F HX  90
DOUGLAS        FAIR      92  46  20 NW3       29.93F

$$
WYZ021-027>030-104>119-042200-
SOUTHERN WYOMING

CITY           SKY/WX    TMP DP  RH WIND       PRES   REMARKS
EVANSTON       FAIR      81  44  27 VRB6      30.15F
KEMMERER       FAIR      84  34  16 W13G23    30.15F
FORT BRIDGER   LGT RAIN  79  41  25 W18G28    30.19R
ROCK SPRINGS   FAIR      87  40  19 VRB7      30.09F
DIXON          FAIR      78  50  38 E16G23    30.11F THUNDER
RAWLINS        PTSUNNY   82  45  27 S7        30.08F
SARATOGA       CLOUDY    73  46  38 N5        30.14R THUNDER
LARAMIE        PTSUNNY   82  40  22 N20       30.12S
CHEYENNE       FAIR      90  47  22 NE9       30.03F
TORRINGTON     FAIR      92  56  29 VRB3      29.87F HX  90
PINE BLUFFS    FAIR      90  52  27 E9G17     29.97F

$$



USA.gov is the U.S. government's official web portal to all federal, state and local government web resources and services.